| time (UTC) | temp F | wind direction | speed MPH | gust MPH | rain 1hr in | rain 24hr in | rain mn in | humidity % | barometer mb |
| 20260905133544 | 80 | 193 | 1.0 | 6.0 | 0.00 | 0.00 | 0.00 | 73 | 1016.8 |
| 20260905133107 | 79 | 188 | 0.0 | 2.0 | 0.00 | 0.00 | 0.00 | 73 | 1016.8 |
| 20260905132544 | 78 | 0 | 1.0 | 2.0 | 0.00 | 0.00 | 0.00 | 74 | 1016.7 |
| 20260905132044 | 78 | 172 | 0.0 | 2.0 | 0.00 | 0.00 | 0.00 | 75 | 1016.6 |
| 20260905131612 | 77 | 0 | 0.0 | 2.0 | 0.00 | 0.00 | 0.00 | 76 | 1016.7 |
| 20260905131045 | 77 | 0 | 0.0 | 2.0 | 0.00 | 0.00 | 0.00 | 77 | 1016.8 |
| 20260905130545 | 76 | 0 | 0.0 | 2.0 | 0.00 | 0.00 | 0.00 | 77 | 1016.7 |
| 20260905130119 | 76 | 0 | 0.0 | 2.0 | 0.00 | 0.00 | 0.00 | 77 | 1016.6 |
| 20260905125543 | 76 | 0 | 0.0 | 1.0 | 0.00 | 0.00 | 0.00 | 78 | 1016.6 |
| 20260905125045 | 75 | 0 | 0.0 | 1.0 | 0.00 | 0.00 | 0.00 | 78 | 1016.5 |
| 20260905124605 | 75 | 0 | 0.0 | 1.0 | 0.00 | 0.00 | 0.00 | 78 | 1016.5 |
| 20260905124044 | 75 | 0 | 0.0 | 1.0 | 0.00 | 0.00 | 0.00 | 77 | 1016.6 |
| 20260905123544 | 75 | 0 | 0.0 | 1.0 | 0.00 | 0.00 | 0.00 | 77 | 1016.5 |
| 20260905123104 | 75 | 0 | 0.0 | 1.0 | 0.00 | 0.00 | 0.00 | 77 | 1016.4 |
| 20260905122544 | 75 | 0 | 0.0 | 0.0 | 0.00 | 0.00 | 0.00 | 77 | 1016.3 |
| 20260905122045 | 75 | 0 | 0.0 | 0.0 | 0.00 | 0.00 | 0.00 | 77 | 1016.2 |
| 20260905121559 | 75 | 0 | 0.0 | 0.0 | 0.00 | 0.00 | 0.00 | 77 | 1016.2 |
| 20260905121044 | 75 | 0 | 0.0 | 1.0 | 0.00 | 0.00 | 0.00 | 76 | 1016.2 |
| 20260905120544 | 75 | 0 | 0.0 | 1.0 | 0.00 | 0.00 | 0.00 | 76 | 1016.1 |
| 20260905120111 | 75 | 0 | 0.0 | 0.0 | 0.00 | 0.00 | 0.00 | 76 | 1016.1 |
| 20260905115545 | 75 | 0 | 0.0 | 1.0 | 0.00 | 0.00 | 0.00 | 77 | 1016.1 |
| 20260905115046 | 75 | 0 | 0.0 | 1.0 | 0.00 | 0.00 | 0.00 | 77 | 1016.0 |
| 20260905114555 | 74 | 0 | 0.0 | 1.0 | 0.00 | 0.00 | 0.00 | 77 | 1015.9 |
| 20260905114043 | 74 | 0 | 0.0 | 0.0 | 0.00 | 0.00 | 0.00 | 77 | 1015.9 |
| 20260905113544 | 75 | 0 | 0.0 | 0.0 | 0.00 | 0.00 | 0.00 | 77 | 1015.9 |
| 20260905113105 | 75 | 0 | 0.0 | 0.0 | 0.00 | 0.00 | 0.00 | 76 | 1015.9 |
| 20260905112543 | 75 | 0 | 0.0 | 1.0 | 0.00 | 0.00 | 0.00 | 76 | 1015.9 |
| 20260905112045 | 75 | 0 | 0.0 | 1.0 | 0.00 | 0.00 | 0.00 | 76 | 1015.9 |
| 20260905111612 | 75 | 138 | 0.0 | 1.0 | 0.00 | 0.00 | 0.00 | 77 | 1015.8 |
| 20260905111044 | 75 | 0 | 0.0 | 0.0 | 0.00 | 0.00 | 0.00 | 77 | 1015.9 |
| 20260905110543 | 75 | 0 | 0.0 | 0.0 | 0.00 | 0.00 | 0.00 | 77 | 1015.8 |
| 20260905110101 | 75 | 0 | 0.0 | 0.0 | 0.00 | 0.00 | 0.00 | 76 | 1015.8 |
| 20260905105543 | 75 | 0 | 0.0 | 0.0 | 0.00 | 0.00 | 0.00 | 76 | 1015.9 |
| 20260905105044 | 75 | 0 | 0.0 | 0.0 | 0.00 | 0.00 | 0.00 | 76 | 1015.8 |
| 20260905104607 | 75 | 0 | 0.0 | 0.0 | 0.00 | 0.00 | 0.00 | 75 | 1015.8 |
| 20260905104042 | 76 | 0 | 0.0 | 0.0 | 0.00 | 0.00 | 0.00 | 75 | 1015.7 |
| 20260905103542 | 76 | 0 | 0.0 | 0.0 | 0.00 | 0.00 | 0.00 | 75 | 1015.8 |
| 20260905103106 | 76 | 0 | 0.0 | 0.0 | 0.00 | 0.00 | 0.00 | 75 | 1015.7 |
| 20260905102542 | 76 | 0 | 0.0 | 0.0 | 0.00 | 0.00 | 0.00 | 75 | 1015.7 |
| 20260905102044 | 75 | 0 | 0.0 | 0.0 | 0.00 | 0.00 | 0.00 | 75 | 1015.7 |
| 20260905101606 | 75 | 0 | 0.0 | 0.0 | 0.00 | 0.00 | 0.00 | 75 | 1015.8 |
| 20260905101042 | 76 | 0 | 0.0 | 0.0 | 0.00 | 0.00 | 0.00 | 75 | 1015.8 |
| 20260905100542 | 76 | 0 | 0.0 | 1.0 | 0.00 | 0.00 | 0.00 | 75 | 1015.7 |
| 20260905100100 | 76 | 0 | 0.0 | 1.0 | 0.00 | 0.00 | 0.00 | 75 | 1015.8 |
| 20260905095541 | 76 | 134 | 0.0 | 1.0 | 0.00 | 0.00 | 0.00 | 75 | 1015.8 |
| 20260905095042 | 76 | 0 | 0.0 | 1.0 | 0.00 | 0.00 | 0.00 | 75 | 1015.8 |
| 20260905094603 | 76 | 0 | 0.0 | 1.0 | 0.00 | 0.00 | 0.00 | 74 | 1015.7 |
| 20260905094041 | 76 | 0 | 0.0 | 1.0 | 0.00 | 0.00 | 0.00 | 74 | 1015.6 |
| 20260905093541 | 76 | 0 | 0.0 | 1.0 | 0.00 | 0.00 | 0.00 | 74 | 1015.7 |
| 20260905093109 | 76 | 0 | 0.0 | 2.0 | 0.00 | 0.00 | 0.00 | 75 | 1015.7 |
| 20260905092543 | 76 | 0 | 0.0 | 2.0 | 0.00 | 0.00 | 0.00 | 75 | 1015.8 |
| 20260905092047 | 76 | 0 | 0.0 | 1.0 | 0.00 | 0.00 | 0.00 | 75 | 1015.6 |
| 20260905091608 | 75 | 0 | 0.0 | 1.0 | 0.00 | 0.00 | 0.00 | 76 | 1015.6 |
| 20260905091042 | 75 | 0 | 0.0 | 1.0 | 0.00 | 0.00 | 0.00 | 76 | 1015.6 |
| 20260905090546 | 75 | 0 | 0.0 | 0.0 | 0.00 | 0.00 | 0.00 | 76 | 1015.5 |
| 20260905090059 | 75 | 0 | 0.0 | 0.0 | 0.00 | 0.00 | 0.00 | 75 | 1015.5 |
| 20260905085542 | 75 | 0 | 0.0 | 0.0 | 0.00 | 0.00 | 0.00 | 75 | 1015.6 |
| 20260905085043 | 75 | 0 | 0.0 | 0.0 | 0.00 | 0.00 | 0.00 | 75 | 1015.6 |
| 20260905084618 | 75 | 0 | 0.0 | 0.0 | 0.00 | 0.00 | 0.00 | 75 | 1015.5 |
| 20260905084042 | 75 | 0 | 0.0 | 0.0 | 0.00 | 0.00 | 0.00 | 75 | 1015.5 |
| 20260905083542 | 75 | 0 | 0.0 | 0.0 | 0.00 | 0.00 | 0.00 | 74 | 1015.6 |
| 20260905083104 | 76 | 0 | 0.0 | 0.0 | 0.00 | 0.00 | 0.00 | 74 | 1015.5 |
| 20260905082541 | 76 | 0 | 0.0 | 1.0 | 0.00 | 0.00 | 0.00 | 74 | 1015.4 |
| 20260905082044 | 76 | 0 | 0.0 | 1.0 | 0.00 | 0.00 | 0.00 | 73 | 1015.4 |
| 20260905081604 | 76 | 0 | 0.0 | 1.0 | 0.00 | 0.00 | 0.00 | 73 | 1015.4 |
| 20260905081041 | 76 | 0 | 0.0 | 1.0 | 0.00 | 0.00 | 0.00 | 73 | 1015.4 |
| 20260905080542 | 77 | 0 | 0.0 | 0.0 | 0.00 | 0.00 | 0.00 | 73 | 1015.4 |
| 20260905080101 | 77 | 0 | 0.0 | 1.0 | 0.00 | 0.00 | 0.00 | 72 | 1015.4 |
| 20260905075545 | 77 | 0 | 0.0 | 1.0 | 0.00 | 0.00 | 0.00 | 72 | 1015.5 |
| 20260905075041 | 77 | 0 | 0.0 | 1.0 | 0.00 | 0.00 | 0.00 | 72 | 1015.5 |
| 20260905074604 | 77 | 0 | 0.0 | 1.0 | 0.00 | 0.00 | 0.00 | 71 | 1015.5 |
| 20260905074043 | 77 | 0 | 0.0 | 1.0 | 0.00 | 0.00 | 0.00 | 71 | 1015.6 |
| 20260905073544 | 78 | 138 | 0.0 | 1.0 | 0.00 | 0.00 | 0.00 | 71 | 1015.6 |
| 20260905073108 | 78 | 0 | 0.0 | 1.0 | 0.00 | 0.00 | 0.00 | 71 | 1015.6 |
| 20260905072545 | 78 | 131 | 0.0 | 1.0 | 0.00 | 0.00 | 0.00 | 71 | 1015.6 |
| 20260905072042 | 78 | 0 | 0.0 | 1.0 | 0.00 | 0.00 | 0.00 | 71 | 1015.7 |
| 20260905071608 | 78 | 129 | 0.0 | 1.0 | 0.00 | 0.00 | 0.00 | 71 | 1015.7 |
| 20260905071044 | 78 | 0 | 0.0 | 1.0 | 0.00 | 0.00 | 0.00 | 71 | 1015.8 |
| 20260905070542 | 78 | 0 | 0.0 | 1.0 | 0.00 | 0.00 | 0.00 | 70 | 1015.7 |
| 20260905070107 | 78 | 136 | 0.0 | 1.0 | 0.00 | 0.00 | 0.00 | 70 | 1015.8 |
| 20260905065541 | 78 | 138 | 0.0 | 1.0 | 0.00 | 0.00 | 0.00 | 70 | 1015.8 |
| 20260905065048 | 78 | 138 | 0.0 | 1.0 | 0.00 | 0.00 | 0.00 | 70 | 1015.8 |
| 20260905064045 | 78 | 137 | 0.0 | 1.0 | 0.00 | 0.00 | 0.00 | 70 | 1015.8 |
| 20260905063541 | 78 | 139 | 0.0 | 1.0 | 0.00 | 0.00 | 0.00 | 71 | 1015.8 |
| 20260905063109 | 78 | 139 | 0.0 | 1.0 | 0.00 | 0.00 | 0.00 | 71 | 1015.8 |
| 20260905062545 | 78 | 137 | 0.0 | 1.0 | 0.00 | 0.00 | 0.00 | 71 | 1015.7 |
| 20260905062044 | 78 | 0 | 0.0 | 1.0 | 0.00 | 0.00 | 0.00 | 71 | 1015.8 |
| 20260905061611 | 78 | 0 | 0.0 | 1.0 | 0.00 | 0.00 | 0.00 | 71 | 1015.8 |
| 20260905061042 | 77 | 0 | 0.0 | 0.0 | 0.00 | 0.00 | 0.00 | 71 | 1015.8 |
| 20260905060546 | 78 | 157 | 0.0 | 0.0 | 0.00 | 0.00 | 0.00 | 71 | 1015.7 |
| 20260905060104 | 78 | 0 | 0.0 | 1.0 | 0.00 | 0.00 | 0.00 | 71 | 1015.8 |
| 20260905055541 | 78 | 0 | 0.0 | 1.0 | 0.00 | 0.00 | 0.00 | 70 | 1015.8 |
| 20260905055042 | 78 | 0 | 0.0 | 1.0 | 0.00 | 0.00 | 0.00 | 70 | 1015.8 |
| 20260905054600 | 78 | 0 | 0.0 | 1.0 | 0.00 | 0.00 | 0.00 | 69 | 1015.7 |
| 20260905054041 | 79 | 168 | 0.0 | 1.0 | 0.00 | 0.00 | 0.00 | 69 | 1015.8 |
| 20260905053542 | 79 | 156 | 0.0 | 1.0 | 0.00 | 0.00 | 0.00 | 68 | 1015.9 |
| 20260905053137 | 79 | 0 | 0.0 | 1.0 | 0.00 | 0.00 | 0.00 | 68 | 1015.9 |
| 20260905052541 | 79 | 0 | 0.0 | 1.0 | 0.00 | 0.00 | 0.00 | 68 | 1015.9 |
| 20260905052042 | 79 | 129 | 0.0 | 1.0 | 0.00 | 0.00 | 0.00 | 68 | 1016.0 |
| 20260905051604 | 79 | 140 | 0.0 | 1.0 | 0.00 | 0.00 | 0.00 | 68 | 1015.9 |
| 20260905051042 | 79 | 139 | 0.0 | 1.0 | 0.00 | 0.00 | 0.00 | 68 | 1015.9 |
| 20260905050542 | 79 | 0 | 0.0 | 1.0 | 0.00 | 0.00 | 0.00 | 68 | 1015.9 |
| 20260905050108 | 79 | 0 | 0.0 | 2.0 | 0.00 | 0.00 | 0.00 | 67 | 1015.8 |
| 20260905045544 | 80 | 0 | 0.0 | 2.0 | 0.00 | 0.00 | 0.00 | 67 | 1015.8 |
| 20260905045043 | 80 | 134 | 0.0 | 1.0 | 0.00 | 0.00 | 0.00 | 67 | 1015.8 |
| 20260905044602 | 80 | 0 | 0.0 | 3.0 | 0.00 | 0.00 | 0.00 | 67 | 1015.7 |
| 20260905044044 | 80 | 136 | 0.0 | 3.0 | 0.00 | 0.00 | 0.00 | 67 | 1015.8 |
| 20260905043543 | 80 | 136 | 0.0 | 2.0 | 0.00 | 0.00 | 0.00 | 66 | 1015.8 |
| 20260905043113 | 80 | 140 | 1.0 | 2.0 | 0.00 | 0.00 | 0.00 | 66 | 1016.0 |
| 20260905042543 | 80 | 136 | 1.0 | 2.0 | 0.00 | 0.00 | 0.00 | 67 | 1015.9 |
| 20260905042046 | 80 | 138 | 1.0 | 2.0 | 0.00 | 0.00 | 0.00 | 67 | 1016.0 |
| 20260905041608 | 80 | 0 | 0.0 | 1.0 | 0.00 | 0.00 | 0.00 | 67 | 1015.9 |
| 20260905041043 | 80 | 0 | 0.0 | 1.0 | 0.00 | 0.00 | 0.00 | 67 | 1015.9 |
| 20260905040548 | 80 | 0 | 0.0 | 1.0 | 0.00 | 0.00 | 0.00 | 67 | 1016.0 |
| 20260905040105 | 80 | 0 | 0.0 | 1.0 | 0.00 | 0.00 | 0.00 | 68 | 1016.0 |
| 20260905035543 | 80 | 113 | 0.0 | 1.0 | 0.00 | 0.00 | 0.00 | 68 | 1016.0 |
| 20260905035044 | 80 | 130 | 0.0 | 1.0 | 0.00 | 0.00 | 0.00 | 67 | 1015.9 |
| 20260905034602 | 79 | 132 | 0.0 | 2.0 | 0.00 | 0.00 | 0.00 | 68 | 1015.8 |
| 20260905034043 | 79 | 0 | 0.0 | 2.0 | 0.00 | 0.00 | 0.00 | 68 | 1015.9 |
| 20260905033543 | 79 | 132 | 0.0 | 2.0 | 0.00 | 0.00 | 0.00 | 68 | 1016.0 |
| 20260905033107 | 79 | 0 | 0.0 | 0.0 | 0.00 | 0.00 | 0.00 | 67 | 1015.8 |
| 20260905032543 | 80 | 0 | 0.0 | 0.0 | 0.00 | 0.00 | 0.00 | 66 | 1015.9 |
| 20260905032043 | 80 | 0 | 0.0 | 0.0 | 0.00 | 0.00 | 0.00 | 66 | 1015.8 |
| 20260905031605 | 80 | 0 | 0.0 | 0.0 | 0.00 | 0.00 | 0.00 | 66 | 1015.7 |
| 20260905031044 | 80 | 0 | 0.0 | 0.0 | 0.00 | 0.00 | 0.00 | 67 | 1015.8 |
| 20260905030544 | 80 | 0 | 0.0 | 0.0 | 0.00 | 0.00 | 0.00 | 67 | 1015.7 |
| 20260905025544 | 80 | 0 | 0.0 | 0.0 | 0.00 | 0.00 | 0.00 | 67 | 1015.5 |
| 20260905025044 | 80 | 0 | 0.0 | 0.0 | 0.00 | 0.00 | 0.00 | 68 | 1015.5 |
| 20260905024624 | 80 | 0 | 0.0 | 0.0 | 0.00 | 0.00 | 0.00 | 69 | 1015.4 |
| 20260905024043 | 80 | 0 | 0.0 | 0.0 | 0.00 | 0.00 | 0.00 | 69 | 1015.3 |
| 20260905023544 | 80 | 0 | 0.0 | 0.0 | 0.00 | 0.00 | 0.00 | 69 | 1015.2 |
| 20260905023124 | 80 | 0 | 0.0 | 0.0 | 0.00 | 0.00 | 0.00 | 69 | 1015.1 |
| 20260905022543 | 80 | 0 | 0.0 | 0.0 | 0.00 | 0.00 | 0.00 | 68 | 1015.0 |
| 20260905022044 | 80 | 0 | 0.0 | 0.0 | 0.00 | 0.00 | 0.00 | 68 | 1015.0 |
| 20260905021617 | 80 | 0 | 0.0 | 0.0 | 0.00 | 0.00 | 0.00 | 68 | 1015.0 |
| 20260905021043 | 80 | 0 | 0.0 | 0.0 | 0.00 | 0.00 | 0.00 | 67 | 1014.9 |
| 20260905020543 | 81 | 0 | 0.0 | 0.0 | 0.00 | 0.00 | 0.00 | 66 | 1014.9 |
| 20260905020112 | 81 | 0 | 0.0 | 0.0 | 0.00 | 0.00 | 0.00 | 66 | 1014.9 |
| 20260905015543 | 82 | 0 | 0.0 | 0.0 | 0.00 | 0.00 | 0.00 | 66 | 1014.7 |
| 20260905015044 | 82 | 0 | 0.0 | 0.0 | 0.00 | 0.00 | 0.00 | 65 | 1014.7 |
| 20260905014616 | 82 | 0 | 0.0 | 0.0 | 0.00 | 0.00 | 0.00 | 65 | 1014.6 |
| 20260905014044 | 83 | 0 | 0.0 | 0.0 | 0.00 | 0.00 | 0.00 | 65 | 1014.6 |
| 20260905013544 | 83 | 0 | 0.0 | 0.0 | 0.00 | 0.00 | 0.00 | 64 | 1014.6 |
| 20260905013057 | 83 | 0 | 0.0 | 0.0 | 0.00 | 0.00 | 0.00 | 63 | 1014.6 |
| 20260905012542 | 84 | 0 | 0.0 | 0.0 | 0.00 | 0.00 | 0.00 | 62 | 1014.5 |
| 20260905012042 | 84 | 0 | 0.0 | 0.0 | 0.00 | 0.00 | 0.00 | 62 | 1014.5 |
| 20260905011619 | 84 | 0 | 0.0 | 0.0 | 0.00 | 0.00 | 0.00 | 61 | 1014.5 |
| 20260905011046 | 85 | 0 | 0.0 | 0.0 | 0.00 | 0.00 | 0.00 | 60 | 1014.4 |
| 20260905010545 | 85 | 0 | 0.0 | 0.0 | 0.00 | 0.00 | 0.00 | 59 | 1014.4 |
| 20260905010058 | 86 | 0 | 0.0 | 0.0 | 0.00 | 0.00 | 0.00 | 58 | 1014.4 |
| 20260905005543 | 86 | 0 | 0.0 | 0.0 | 0.00 | 0.00 | 0.00 | 57 | 1014.3 |
| 20260905005042 | 87 | 0 | 0.0 | 0.0 | 0.00 | 0.00 | 0.00 | 56 | 1014.3 |
| 20260905004604 | 88 | 0 | 0.0 | 1.0 | 0.00 | 0.00 | 0.00 | 55 | 1014.3 |
| 20260905004043 | 88 | 0 | 0.0 | 1.0 | 0.00 | 0.00 | 0.00 | 55 | 1014.3 |
| 20260905003543 | 89 | 0 | 0.0 | 0.0 | 0.00 | 0.00 | 0.00 | 54 | 1014.3 |
| 20260905003107 | 90 | 0 | 0.0 | 0.0 | 0.00 | 0.00 | 0.00 | 52 | 1014.2 |
| 20260905002544 | 91 | 0 | 0.0 | 0.0 | 0.00 | 0.00 | 0.00 | 50 | 1014.3 |
| 20260905002042 | 92 | 0 | 0.0 | 0.0 | 0.00 | 0.00 | 0.00 | 48 | 1014.2 |
| 20260905001607 | 93 | 0 | 0.0 | 1.0 | 0.00 | 0.00 | 0.00 | 48 | 1014.3 |
| 20260905001043 | 94 | 0 | 0.0 | 1.0 | 0.00 | 0.00 | 0.00 | 47 | 1014.4 |
| 20260905000543 | 94 | 0 | 0.0 | 1.0 | 0.00 | 0.00 | 0.00 | 47 | 1014.3 |
| 20260905000109 | 94 | 0 | 0.0 | 1.0 | 0.00 | 0.00 | 0.00 | 46 | 1014.3 |
| 20260904235544 | 94 | 0 | 0.0 | 1.0 | 0.00 | 0.00 | 0.00 | 47 | 1014.3 |
| 20260904235042 | 94 | 0 | 0.0 | 2.0 | 0.00 | 0.00 | 0.00 | 46 | 1014.3 |
| 20260904234600 | 94 | 0 | 0.0 | 2.0 | 0.00 | 0.00 | 0.00 | 46 | 1014.3 |
| 20260904234043 | 94 | 0 | 0.0 | 4.0 | 0.00 | 0.00 | 0.00 | 47 | 1014.3 |
| 20260904233543 | 94 | 0 | 0.0 | 4.0 | 0.00 | 0.00 | 0.00 | 47 | 1014.2 |
| 20260904233107 | 94 | 152 | 0.0 | 3.0 | 0.00 | 0.00 | 0.00 | 45 | 1014.3 |
| 20260904232544 | 94 | 119 | 1.0 | 4.0 | 0.00 | 0.00 | 0.00 | 44 | 1014.3 |
| 20260904232042 | 94 | 127 | 1.0 | 4.0 | 0.00 | 0.00 | 0.00 | 45 | 1014.4 |
| 20260904231612 | 94 | 220 | 1.0 | 4.0 | 0.00 | 0.00 | 0.00 | 45 | 1014.4 |
| 20260904231041 | 94 | 125 | 1.0 | 4.0 | 0.00 | 0.00 | 0.00 | 44 | 1014.4 |
| 20260904230542 | 94 | 147 | 2.0 | 4.0 | 0.00 | 0.00 | 0.00 | 45 | 1014.5 |
| 20260904230109 | 95 | 150 | 2.0 | 7.0 | 0.00 | 0.00 | 0.00 | 44 | 1014.5 |
| 20260904225542 | 95 | 136 | 3.0 | 7.0 | 0.00 | 0.00 | 0.00 | 43 | 1014.5 |
| 20260904225042 | 95 | 129 | 2.0 | 6.0 | 0.00 | 0.00 | 0.00 | 45 | 1014.4 |
| 20260904224609 | 95 | 115 | 2.0 | 5.0 | 0.00 | 0.00 | 0.00 | 42 | 1014.4 |
| 20260904224046 | 95 | 210 | 1.0 | 6.0 | 0.00 | 0.00 | 0.00 | 42 | 1014.4 |
| 20260904223543 | 96 | 138 | 2.0 | 6.0 | 0.00 | 0.00 | 0.00 | 42 | 1014.5 |
| 20260904223104 | 96 | 205 | 2.0 | 9.0 | 0.00 | 0.00 | 0.00 | 43 | 1014.4 |
| 20260904222546 | 96 | 171 | 3.0 | 9.0 | 0.00 | 0.00 | 0.00 | 42 | 1014.4 |
| 20260904222043 | 96 | 220 | 0.0 | 6.0 | 0.00 | 0.00 | 0.00 | 42 | 1014.4 |
| 20260904221604 | 96 | 85 | 1.0 | 7.0 | 0.00 | 0.00 | 0.00 | 44 | 1014.4 |
| 20260904221043 | 97 | 212 | 3.0 | 8.0 | 0.00 | 0.00 | 0.00 | 41 | 1014.5 |
| 20260904220545 | 97 | 188 | 2.0 | 8.0 | 0.00 | 0.00 | 0.00 | 41 | 1014.5 |
| 20260904220113 | 97 | 185 | 3.0 | 8.0 | 0.00 | 0.00 | 0.00 | 41 | 1014.6 |
| 20260904215542 | 98 | 205 | 3.0 | 9.0 | 0.00 | 0.00 | 0.00 | 42 | 1014.4 |
| 20260904215041 | 98 | 205 | 3.0 | 9.0 | 0.00 | 0.00 | 0.00 | 42 | 1014.5 |
| 20260904214614 | 98 | 163 | 1.0 | 8.0 | 0.00 | 0.00 | 0.00 | 41 | 1014.5 |
| 20260904214042 | 98 | 244 | 4.0 | 8.0 | 0.00 | 0.00 | 0.00 | 41 | 1014.6 |
| 20260904213542 | 98 | 142 | 3.0 | 7.0 | 0.00 | 0.00 | 0.00 | 42 | 1014.6 |
| 20260904213110 | 98 | 181 | 1.0 | 7.0 | 0.00 | 0.00 | 0.00 | 41 | 1014.6 |
| 20260904212541 | 98 | 212 | 2.0 | 5.0 | 0.00 | 0.00 | 0.00 | 41 | 1014.7 |
| 20260904212041 | 98 | 215 | 1.0 | 7.0 | 0.00 | 0.00 | 0.00 | 40 | 1014.7 |
| 20260904211609 | 98 | 117 | 3.0 | 7.0 | 0.00 | 0.00 | 0.00 | 40 | 1014.7 |
| 20260904211042 | 98 | 236 | 1.0 | 7.0 | 0.00 | 0.00 | 0.00 | 41 | 1014.8 |
| 20260904210542 | 98 | 105 | 2.0 | 7.0 | 0.00 | 0.00 | 0.00 | 41 | 1014.8 |
| 20260904210104 | 97 | 0 | 1.0 | 4.0 | 0.00 | 0.00 | 0.00 | 42 | 1014.9 |
| 20260904205543 | 98 | 226 | 1.0 | 6.0 | 0.00 | 0.00 | 0.00 | 42 | 1014.8 |
| 20260904205042 | 98 | 238 | 3.0 | 7.0 | 0.00 | 0.00 | 0.00 | 42 | 1015.0 |
| 20260904204604 | 98 | 169 | 3.0 | 7.0 | 0.00 | 0.00 | 0.00 | 42 | 1015.1 |
| 20260904204042 | 98 | 223 | 1.0 | 5.0 | 0.00 | 0.00 | 0.00 | 42 | 1015.1 |
| 20260904203544 | 97 | 0 | 1.0 | 7.0 | 0.00 | 0.00 | 0.00 | 42 | 1015.1 |
| 20260904203102 | 97 | 126 | 3.0 | 7.0 | 0.00 | 0.00 | 0.00 | 42 | 1015.1 |
| 20260904202542 | 97 | 157 | 2.0 | 7.0 | 0.00 | 0.00 | 0.00 | 42 | 1015.2 |
| 20260904202041 | 98 | 245 | 3.0 | 7.0 | 0.00 | 0.00 | 0.00 | 41 | 1015.3 |
| 20260904201636 | 98 | 160 | 3.0 | 7.0 | 0.00 | 0.00 | 0.00 | 42 | 1015.3 |
| 20260904201042 | 97 | 225 | 2.0 | 5.0 | 0.00 | 0.00 | 0.00 | 44 | 1015.3 |
| 20260904200544 | 97 | 239 | 2.0 | 5.0 | 0.00 | 0.00 | 0.00 | 43 | 1015.4 |
| 20260904200122 | 96 | 0 | 1.0 | 10.0 | 0.00 | 0.00 | 0.00 | 44 | 1015.5 |
| 20260904195545 | 96 | 213 | 2.0 | 10.0 | 0.00 | 0.00 | 0.00 | 43 | 1015.6 |
| 20260904195041 | 96 | 146 | 3.0 | 10.0 | 0.00 | 0.00 | 0.00 | 46 | 1015.8 |
| 20260904194608 | 96 | 190 | 2.0 | 7.0 | 0.00 | 0.00 | 0.00 | 45 | 1015.8 |
| 20260904194041 | 97 | 132 | 3.0 | 7.0 | 0.00 | 0.00 | 0.00 | 45 | 1015.9 |
| 20260904193542 | 97 | 186 | 1.0 | 7.0 | 0.00 | 0.00 | 0.00 | 44 | 1016.0 |
| 20260904193106 | 96 | 219 | 3.0 | 8.0 | 0.00 | 0.00 | 0.00 | 45 | 1015.9 |
| 20260904192541 | 96 | 199 | 3.0 | 8.0 | 0.00 | 0.00 | 0.00 | 45 | 1015.9 |
| 20260904192042 | 96 | 211 | 2.0 | 8.0 | 0.00 | 0.00 | 0.00 | 48 | 1015.9 |
| 20260904191559 | 95 | 151 | 2.0 | 7.0 | 0.00 | 0.00 | 0.00 | 48 | 1016.1 |
| 20260904191044 | 95 | 150 | 3.0 | 8.0 | 0.00 | 0.00 | 0.00 | 48 | 1016.2 |
| 20260904190544 | 96 | 210 | 2.0 | 8.0 | 0.00 | 0.00 | 0.00 | 45 | 1016.2 |
| 20260904190115 | 95 | 188 | 3.0 | 8.0 | 0.00 | 0.00 | 0.00 | 48 | 1016.3 |
| 20260904185544 | 95 | 247 | 2.0 | 7.0 | 0.00 | 0.00 | 0.00 | 45 | 1016.4 |
| 20260904185046 | 95 | 0 | 3.0 | 7.0 | 0.00 | 0.00 | 0.00 | 46 | 1016.5 |
| 20260904184600 | 95 | 212 | 2.0 | 7.0 | 0.00 | 0.00 | 0.00 | 50 | 1016.5 |
| 20260904184042 | 95 | 121 | 2.0 | 9.0 | 0.00 | 0.00 | 0.00 | 47 | 1016.6 |
| 20260904183542 | 95 | 169 | 3.0 | 10.0 | 0.00 | 0.00 | 0.00 | 48 | 1016.6 |
| 20260904183058 | 94 | 247 | 2.0 | 10.0 | 0.00 | 0.00 | 0.00 | 47 | 1016.6 |
| 20260904182542 | 94 | 223 | 2.0 | 10.0 | 0.00 | 0.00 | 0.00 | 48 | 1016.7 |
| 20260904182042 | 94 | 241 | 3.0 | 7.0 | 0.00 | 0.00 | 0.00 | 48 | 1016.8 |
| 20260904181607 | 95 | 134 | 3.0 | 7.0 | 0.00 | 0.00 | 0.00 | 49 | 1016.7 |
| 20260904181042 | 95 | 82 | 3.0 | 7.0 | 0.00 | 0.00 | 0.00 | 48 | 1016.9 |
| 20260904180543 | 94 | 184 | 3.0 | 6.0 | 0.00 | 0.00 | 0.00 | 49 | 1017.0 |
| 20260904180104 | 94 | 236 | 2.0 | 7.0 | 0.00 | 0.00 | 0.00 | 49 | 1017.1 |
| 20260904175542 | 94 | 119 | 2.0 | 7.0 | 0.00 | 0.00 | 0.00 | 48 | 1017.1 |
| 20260904175044 | 94 | 120 | 2.0 | 7.0 | 0.00 | 0.00 | 0.00 | 50 | 1017.1 |
| 20260904174558 | 93 | 207 | 3.0 | 8.0 | 0.00 | 0.00 | 0.00 | 49 | 1017.2 |
| 20260904174043 | 93 | 242 | 3.0 | 8.0 | 0.00 | 0.00 | 0.00 | 48 | 1017.4 |
| 20260904173541 | 93 | 152 | 2.0 | 8.0 | 0.00 | 0.00 | 0.00 | 50 | 1017.4 |
| 20260904173125 | 93 | 123 | 3.0 | 7.0 | 0.00 | 0.00 | 0.00 | 50 | 1017.6 |
| 20260904172542 | 93 | 153 | 3.0 | 10.0 | 0.00 | 0.00 | 0.00 | 52 | 1017.6 |
| 20260904172043 | 93 | 166 | 3.0 | 10.0 | 0.00 | 0.00 | 0.00 | 52 | 1017.7 |
| 20260904171611 | 92 | 246 | 1.0 | 9.0 | 0.00 | 0.00 | 0.00 | 53 | 1017.7 |
| 20260904171046 | 92 | 136 | 2.0 | 8.0 | 0.00 | 0.00 | 0.00 | 55 | 1017.9 |
| 20260904170542 | 91 | 138 | 3.0 | 7.0 | 0.00 | 0.00 | 0.00 | 53 | 1017.9 |
| 20260904170101 | 91 | 200 | 1.0 | 7.0 | 0.00 | 0.00 | 0.00 | 56 | 1017.9 |
| 20260904165542 | 91 | 183 | 1.0 | 7.0 | 0.00 | 0.00 | 0.00 | 55 | 1017.8 |
| 20260904165042 | 91 | 271 | 2.0 | 9.0 | 0.00 | 0.00 | 0.00 | 55 | 1017.9 |
| 20260904164612 | 90 | 217 | 1.0 | 9.0 | 0.00 | 0.00 | 0.00 | 55 | 1017.9 |
| 20260904164042 | 90 | 221 | 2.0 | 9.0 | 0.00 | 0.00 | 0.00 | 56 | 1017.9 |
| 20260904163541 | 90 | 234 | 3.0 | 9.0 | 0.00 | 0.00 | 0.00 | 55 | 1018.0 |
| 20260904163055 | 91 | 277 | 2.0 | 9.0 | 0.00 | 0.00 | 0.00 | 55 | 1017.9 |
| 20260904162542 | 91 | 237 | 4.0 | 9.0 | 0.00 | 0.00 | 0.00 | 55 | 1017.9 |
| 20260904162043 | 91 | 218 | 3.0 | 9.0 | 0.00 | 0.00 | 0.00 | 56 | 1018.0 |
| 20260904161605 | 90 | 159 | 2.0 | 9.0 | 0.00 | 0.00 | 0.00 | 56 | 1017.9 |
| 20260904161042 | 90 | 218 | 2.0 | 11.0 | 0.00 | 0.00 | 0.00 | 57 | 1018.0 |
| 20260904160542 | 90 | 244 | 4.0 | 11.0 | 0.00 | 0.00 | 0.00 | 56 | 1018.0 |
| 20260904155543 | 90 | 215 | 2.0 | 6.0 | 0.00 | 0.00 | 0.00 | 55 | 1018.1 |
| 20260904155041 | 90 | 164 | 2.0 | 5.0 | 0.00 | 0.00 | 0.00 | 57 | 1018.0 |
| 20260904154607 | 89 | 179 | 2.0 | 10.0 | 0.00 | 0.00 | 0.00 | 56 | 1018.0 |
| 20260904154044 | 89 | 209 | 3.0 | 10.0 | 0.00 | 0.00 | 0.00 | 58 | 1018.1 |
| 20260904153543 | 89 | 256 | 1.0 | 6.0 | 0.00 | 0.00 | 0.00 | 60 | 1018.1 |
| 20260904153107 | 88 | 232 | 2.0 | 10.0 | 0.00 | 0.00 | 0.00 | 59 | 1018.0 |
| 20260904152544 | 88 | 236 | 3.0 | 10.0 | 0.00 | 0.00 | 0.00 | 61 | 1018.0 |
| 20260904152042 | 88 | 197 | 4.0 | 10.0 | 0.00 | 0.00 | 0.00 | 60 | 1018.1 |
| 20260904151616 | 88 | 206 | 5.0 | 10.0 | 0.00 | 0.00 | 0.00 | 61 | 1018.0 |
| 20260904151042 | 88 | 277 | 2.0 | 6.0 | 0.00 | 0.00 | 0.00 | 61 | 1018.0 |
| 20260904150542 | 88 | 256 | 2.0 | 5.0 | 0.00 | 0.00 | 0.00 | 62 | 1018.0 |
| 20260904150125 | 88 | 238 | 1.0 | 6.0 | 0.00 | 0.00 | 0.00 | 62 | 1018.0 |
| 20260904145542 | 87 | 247 | 1.0 | 7.0 | 0.00 | 0.00 | 0.00 | 63 | 1017.9 |
| 20260904145043 | 86 | 160 | 3.0 | 7.0 | 0.00 | 0.00 | 0.00 | 64 | 1017.8 |
| 20260904144604 | 86 | 238 | 2.0 | 7.0 | 0.00 | 0.00 | 0.00 | 67 | 1017.8 |
| 20260904144042 | 85 | 259 | 2.0 | 7.0 | 0.00 | 0.00 | 0.00 | 67 | 1017.9 |
| 20260904143542 | 85 | 259 | 1.0 | 8.0 | 0.00 | 0.00 | 0.00 | 67 | 1017.8 |
| 20260904143117 | 85 | 243 | 2.0 | 8.0 | 0.00 | 0.00 | 0.00 | 67 | 1017.7 |
| 20260904142542 | 85 | 252 | 2.0 | 7.0 | 0.00 | 0.00 | 0.00 | 67 | 1017.6 |
| 20260904142043 | 85 | 257 | 0.0 | 3.0 | 0.00 | 0.00 | 0.00 | 69 | 1017.7 |
| 20260904141617 | 84 | 0 | 0.0 | 3.0 | 0.00 | 0.00 | 0.00 | 69 | 1017.7 |
| 20260904141042 | 84 | 161 | 0.0 | 3.0 | 0.00 | 0.00 | 0.00 | 70 | 1017.7 |
| 20260904140544 | 83 | 176 | 0.0 | 4.0 | 0.00 | 0.00 | 0.00 | 72 | 1017.7 |
| 20260904140106 | 83 | 167 | 1.0 | 4.0 | 0.00 | 0.00 | 0.00 | 73 | 1017.8 |
| 20260904135543 | 82 | 0 | 0.0 | 3.0 | 0.00 | 0.00 | 0.00 | 73 | 1017.9 |
| 20260904135042 | 81 | 159 | 0.0 | 2.0 | 0.00 | 0.00 | 0.00 | 74 | 1017.8 |
| 20260904134620 | 81 | 240 | 0.0 | 5.0 | 0.00 | 0.00 | 0.00 | 75 | 1017.8 |
| 20260904134042 | 80 | 201 | 0.0 | 5.0 | 0.00 | 0.00 | 0.00 | 77 | 1017.8 |